E27EKO-13 Weather Reports


time (UTC)temp
C
wind
direction
speed
KPH
gust
KPH
rain 1hr
cm
rain 24hr
cm
rain mn
cm
humidity
%
barometer
mb
20260504172727 192 0 0.0 0.0 0.00 0.00 0.00 100
20260504172205 192 0 0.0 0.0 0.00 0.00 0.00 100
20260504171643 192 0 0.0 0.0 0.00 0.00 0.00 100
20260504171121 192 0 0.0 0.0 0.00 0.00 0.00 100
20260504170559 192 0 0.0 0.0 0.00 0.00 0.00 100
20260504160154 29 0 0.0 0.0 0.00 0.00 0.00 99 1011.0
20260504150939 30 0 0.0 0.0 0.00 0.00 0.00 91 1010.0
20260504150417 30 0 0.0 0.0 0.00 0.00 0.00 91 1010.0
20260504140859 30 0 0.0 0.0 0.00 0.00 0.00 94 1009.0
20260504130606 31 0 0.0 0.0 0.00 0.00 0.00 84 1008.0
20260504110645 32 0 0.0 0.0 0.00 0.00 0.00 75 1006.0
20260504110123 32 0 0.0 0.0 0.00 0.00 0.00 75 1006.0
20260504100152 32 0 0.0 0.0 0.00 0.00 0.00 75 1007.0
20260504081658 32 0 0.0 0.0 0.00 0.00 0.00 68 1006.0
20260504081136 33 0 0.0 0.0 0.00 0.00 0.00 64 1007.0
20260504080614 34 0 0.0 0.0 0.00 0.00 0.00 60 1007.0
20260504060146 41 0 0.0 0.0 0.00 0.00 0.00 51 1007.0
20260504050243 40 0 0.0 0.0 0.00 0.00 0.00 52 1009.0
20260504045721 40 0 0.0 0.0 0.00 0.00 0.00 53 1009.0
20260504045159 40 0 0.0 0.0 0.00 0.00 0.00 54 1009.0
20260504044637 40 0 0.0 0.0 0.00 0.00 0.00 55 1009.0
20260504044115 40 0 0.0 0.0 0.00 0.00 0.00 54 1009.0
20260504043553 40 0 0.0 0.0 0.00 0.00 0.00 53 1009.0
20260504043031 41 0 0.0 0.0 0.00 0.00 0.00 51 1009.0
20260504042510 41 0 0.0 0.0 0.00 0.00 0.00 51 1009.0
20260504041947 41 0 0.0 0.0 0.00 0.00 0.00 51 1009.0
20260504041425 41 0 0.0 0.0 0.00 0.00 0.00 52 1009.0
20260504040903 40 0 0.0 0.0 0.00 0.00 0.00 53 1009.0
20260504040341 40 0 0.0 0.0 0.00 0.00 0.00 54 1009.0
20260504035819 40 0 0.0 0.0 0.00 0.00 0.00 55 1009.0
20260504035257 40 0 0.0 0.0 0.00 0.00 0.00 54 1009.0
20260504034638 40 0 0.0 0.0 0.00 0.00 0.00 53 1009.0
20260504034116 40 0 0.0 0.0 0.00 0.00 0.00 53 1009.0
20260504033554 40 0 0.0 0.0 0.00 0.00 0.00 55 1009.0
20260504033032 39 0 0.0 0.0 0.00 0.00 0.00 54 1010.0
20260504032510 40 0 0.0 0.0 0.00 0.00 0.00 54 1010.0
20260504031947 39 0 0.0 0.0 0.00 0.00 0.00 56 1010.0
20260504031746 40 0 0.0 0.0 0.00 0.00 0.00 55 1010.0
20260504031224 40 0 0.0 0.0 0.00 0.00 0.00 54 1010.0
20260504030702 40 0 0.0 0.0 0.00 0.00 0.00 54 1010.0
20260504030140 40 0 0.0 0.0 0.00 0.00 0.00 53 1010.0
20260504025618 40 0 0.0 0.0 0.00 0.00 0.00 55 1010.0
20260504025056 40 0 0.0 0.0 0.00 0.00 0.00 55 1010.0
20260504024534 40 0 0.0 0.0 0.00 0.00 0.00 55 1010.0
20260504024012 40 0 0.0 0.0 0.00 0.00 0.00 55 1010.0
20260504023655 40 0 0.0 0.0 0.00 0.00 0.00 54 1010.0
20260504023423 40 0 0.0 0.0 0.00 0.00 0.00 54 1010.0
20260504022949 40 0 0.0 0.0 0.00 0.00 0.00 54 1010.0
20260504022427 40 0 0.0 0.0 0.00 0.00 0.00 55 1010.0
20260504021905 39 0 0.0 0.0 0.00 0.00 0.00 57 1010.0
20260504021343 39 0 0.0 0.0 0.00 0.00 0.00 57 1010.0
20260504020821 39 0 0.0 0.0 0.00 0.00 0.00 59 1010.0
20260504020259 38 0 0.0 0.0 0.00 0.00 0.00 61 1010.0
20260504015737 38 0 0.0 0.0 0.00 0.00 0.00 63 1010.0
20260504015215 37 0 0.0 0.0 0.00 0.00 0.00 64 1010.0
20260504014653 37 0 0.0 0.0 0.00 0.00 0.00 65 1010.0
20260504014131 37 0 0.0 0.0 0.00 0.00 0.00 66 1010.0
20260504013609 37 0 0.0 0.0 0.00 0.00 0.00 65 1010.0
20260504013047 37 0 0.0 0.0 0.00 0.00 0.00 67 1010.0
20260504012525 37 0 0.0 0.0 0.00 0.00 0.00 67 1010.0
20260504012003 37 0 0.0 0.0 0.00 0.00 0.00 70 1010.0
20260504011856 36 0 0.0 0.0 0.00 0.00 0.00 71 1010.0
20260504011712 36 0 0.0 0.0 0.00 0.00 0.00 70 1010.0
20260504011150 36 0 0.0 0.0 0.00 0.00 0.00 70 1010.0
20260504010628 37 0 0.0 0.0 0.00 0.00 0.00 67 1010.0
20260504010039 37 0 0.0 0.0 0.00 0.00 0.00 64 1009.0
20260504005517 38 0 0.0 0.0 0.00 0.00 0.00 60 1009.0
20260504004955 42 0 0.0 0.0 0.00 0.00 0.00 54 1009.0
20260504004433 39 0 0.0 0.0 0.00 0.00 0.00 60 1009.0
20260504003911 40 0 0.0 0.0 0.00 0.00 0.00 57 1009.0
20260504003601 39 0 0.0 0.0 0.00 0.00 0.00 58 1009.0
20260504003039 41 0 0.0 0.0 0.00 0.00 0.00 55 1009.0
20260504002517 40 0 0.0 0.0 0.00 0.00 0.00 56 1009.0
20260504001955 38 0 0.0 0.0 0.00 0.00 0.00 60 1009.0
20260504001433 39 0 0.0 0.0 0.00 0.00 0.00 59 1009.0
20260504000911 40 0 0.0 0.0 0.00 0.00 0.00 57 1009.0
20260504000540 40 0 0.0 0.0 0.00 0.00 0.00 56 1009.0
20260504000018 39 0 0.0 0.0 0.00 0.00 0.00 59 1009.0
20260503235456 41 0 0.0 0.0 0.00 0.00 0.00 56 1009.0
20260503234934 40 0 0.0 0.0 0.00 0.00 0.00 59 1008.0
20260503234412 38 0 0.0 0.0 0.00 0.00 0.00 64 1008.0
20260503233850 37 0 0.0 0.0 0.00 0.00 0.00 70 1008.0
20260503233328 35 0 0.0 0.0 0.00 0.00 0.00 76 1008.0
20260503232806 34 0 0.0 0.0 0.00 0.00 0.00 83 1008.0
20260503232244 33 0 0.0 0.0 0.00 0.00 0.00 90 1008.0
20260503231721 31 0 0.0 0.0 0.00 0.00 0.00 97 1008.0
20260503231159 31 0 0.0 0.0 0.00 0.00 0.00 99 1008.0
20260503230709 31 0 0.0 0.0 0.00 0.00 0.00 99 1008.0
20260503230351 31 0 0.0 0.0 0.00 0.00 0.00 99 1008.0
20260503225829 31 0 0.0 0.0 0.00 0.00 0.00 99 1008.0
20260503225603 30 0 0.0 0.0 0.00 0.00 0.00 99 1008.0
20260503225041 30 0 0.0 0.0 0.00 0.00 0.00 99 1008.0
20260503224519 30 0 0.0 0.0 0.00 0.00 0.00 99 1008.0
20260503223957 31 0 0.0 0.0 0.00 0.00 0.00 99 1008.0
20260503223435 30 0 0.0 0.0 0.00 0.00 0.00 99 1008.0
20260503222913 31 0 0.0 0.0 0.00 0.00 0.00 99 1008.0
20260503222351 31 0 0.0 0.0 0.00 0.00 0.00 99 1008.0
20260503221829 31 0 0.0 0.0 0.00 0.00 0.00 99 1008.0
20260503221532 31 0 0.0 0.0 0.00 0.00 0.00 99 1008.0
20260503221010 31 0 0.0 0.0 0.00 0.00 0.00 99 1008.0
20260503220448 31 0 0.0 0.0 0.00 0.00 0.00 99 1008.0
20260503215926 31 0 0.0 0.0 0.00 0.00 0.00 99 1008.0
20260503215404 31 0 0.0 0.0 0.00 0.00 0.00 99 1008.0
20260503214842 31 0 0.0 0.0 0.00 0.00 0.00 98 1008.0
20260503214320 31 0 0.0 0.0 0.00 0.00 0.00 97 1008.0
20260503213758 31 0 0.0 0.0 0.00 0.00 0.00 95 1007.0
20260503213436 31 0 0.0 0.0 0.00 0.00 0.00 96 1007.0
20260503212914 31 0 0.0 0.0 0.00 0.00 0.00 95 1007.0
20260503212352 32 0 0.0 0.0 0.00 0.00 0.00 92 1007.0
20260503211830 32 0 0.0 0.0 0.00 0.00 0.00 92 1007.0
20260503211308 32 0 0.0 0.0 0.00 0.00 0.00 92 1007.0
20260503210746 32 0 0.0 0.0 0.00 0.00 0.00 92 1007.0
20260503210224 32 0 0.0 0.0 0.00 0.00 0.00 92 1007.0
20260503205701 32 0 0.0 0.0 0.00 0.00 0.00 92 1007.0
20260503205139 32 0 0.0 0.0 0.00 0.00 0.00 92 1007.0
20260503204617 32 0 0.0 0.0 0.00 0.00 0.00 92 1007.0
20260503204055 32 0 0.0 0.0 0.00 0.00 0.00 93 1007.0
20260503203533 31 0 0.0 0.0 0.00 0.00 0.00 93 1007.0
20260503203011 31 0 0.0 0.0 0.00 0.00 0.00 93 1007.0
20260503202449 31 0 0.0 0.0 0.00 0.00 0.00 93 1007.0
20260503201927 31 0 0.0 0.0 0.00 0.00 0.00 92 1007.0
20260503201657 31 0 0.0 0.0 0.00 0.00 0.00 93 1007.0
20260503201135 31 0 0.0 0.0 0.00 0.00 0.00 93 1007.0
20260503200613 31 0 0.0 0.0 0.00 0.00 0.00 94 1007.0
20260503200051 31 0 0.0 0.0 0.00 0.00 0.00 93 1007.0
20260503195529 31 0 0.0 0.0 0.00 0.00 0.00 92 1007.0
20260503195007 31 0 0.0 0.0 0.00 0.00 0.00 92 1007.0
20260503190325 31 0 0.0 0.0 0.00 0.00 0.00 87 1008.0
20260503185741 32 0 0.0 0.0 0.00 0.00 0.00 85 1008.0
20260503185219 33 0 0.0 0.0 0.00 0.00 0.00 84 1008.0
20260503184657 33 0 0.0 0.0 0.00 0.00 0.00 84 1008.0
20260503184135 33 0 0.0 0.0 0.00 0.00 0.00 84 1008.0
20260503183613 33 0 0.0 0.0 0.00 0.00 0.00 84 1008.0
20260503175341 33 0 0.0 0.0 0.00 0.00 0.00 84 1008.0
20260503174819 33 0 0.0 0.0 0.00 0.00 0.00 85 1008.0
20260503174257 33 0 0.0 0.0 0.00 0.00 0.00 85 1008.0
20260503173735 33 0 0.0 0.0 0.00 0.00 0.00 85 1008.0
20260503173214 33 0 0.0 0.0 0.00 0.00 0.00 85 1008.0